Theta_e
336 337 337 337 335 329 325 324 324 324 322 315 310 310 308 308 309 310 310 310 310 310 309 310 309 311 318 319 320 321 321 321 325 315 312 309 310 311 311 313 316 317 320
335 337 337 337 334 328 325 325 325 324 318 311 310 309 308 309 310 310 310 310 310 310 312 316 316 318 319 319 321 322 318 317 316 316 315 314 309 309 312 313 313 315 319
336 337 337 337 332 327 326 326 326 323 314 310 310 308 309 310 310 310 310 310 311 313 313 316 316 316 317 317 319 321 317 317 317 316 316 316 311 309 308 311 313 313 315
337 337 337 336 330 327 328 327 326 319 311 310 308 308 309 310 310 310 311 313 313 313 313 313 313 316 318 317 318 320 318 318 317 317 318 317 313 309 309 308 309 310 311
337 337 337 334 327 327 328 327 323 314 310 310 308 309 310 310 310 311 313 313 313 313 314 313 316 317 318 318 317 318 318 319 318 318 317 315 315 311 308 310 309 308 308
337 338 337 331 327 328 329 326 316 311 310 309 309 310 310 311 311 312 314 314 313 313 316 317 315 316 317 317 316 314 317 317 316 316 315 314 313 313 312 308 310 311 309
336 337 334 328 328 329 328 319 313 309 310 309 309 310 310 311 312 313 314 314 313 314 315 317 317 315 316 315 314 314 315 316 316 314 314 314 313 313 312 311 308 309 312
335 334 329 328 330 329 321 315 311 308 310 309 309 310 311 312 313 313 314 314 314 314 315 317 317 317 317 318 317 316 316 315 314 314 314 313 313 312 311 311 310 308 309
333 331 330 331 329 322 315 312 310 309 309 308 310 310 311 312 313 313 314 314 314 314 316 318 318 319 319 319 318 318 317 316 314 313 313 313 311 311 309 310 310 308 308
329 332 331 328 322 317 315 313 311 309 309 309 310 311 311 312 313 314 314 314 314 317 317 319 319 320 320 320 319 318 317 315 313 312 311 310 310 309 309 309 309 308 308
326 323 323 321 322 321 320 314 311 308 309 311 310 311 313 314 312 313 315 318 317 319 320 320 320 320 321 320 319 317 315 314 313 312 312 311 309 309 309 309 309 308 306
324 323 322 320 321 319 315 312 310 309 311 311 316 319 321 320 318 320 322 321 322 322 322 321 321 320 320 319 317 316 316 314 312 312 311 310 309 311 310 309 308 307 306
325 322 323 323 319 318 312 311 310 312 317 319 321 323 323 322 323 324 324 323 323 322 322 322 321 320 319 318 317 314 313 312 311 310 310 309 310 309 309 309 306 306 306
319 320 322 320 320 317 312 312 314 320 324 324 325 324 323 320 322 324 324 323 323 322 321 321 320 320 318 315 313 312 311 311 310 310 308 308 308 308 309 308 307 307 307
323 326 326 326 322 314 316 314 322 325 325 324 325 324 324 324 324 323 324 323 321 319 320 321 320 318 315 312 311 311 311 309 306 304 305 306 306 305 306 306 306 308 307
328 327 327 326 319 317 324 326 322 321 323 325 326 326 325 325 325 324 325 324 322 320 319 319 318 314 310 310 309 309 309 307 301 304 305 305 305 304 303 306 309 308 307
328 325 327 323 318 323 324 326 325 322 323 326 326 326 327 326 325 320 320 321 320 319 317 313 310 310 310 309 309 307 301 298 300 302 302 302 303 302 303 308 307 305 305
327 326 325 323 323 325 326 326 326 328 327 325 321 322 322 321 319 320 320 320 317 312 310 310 310 309 309 307 302 299 298 299 302 302 302 302 300 302 306 306 304 304 303
325 326 327 325 324 325 325 326 327 329 325 320 321 320 319 319 320 319 316 311 311 310 310 310 309 307 303 299 297 297 299 301 300 301 301 300 301 304 304 303 303 300 298
325 326 328 327 326 326 326 326 327 326 321 321 321 320 318 317 314 312 311 311 310 310 309 307 304 300 298 296 296 298 299 299 299 299 299 299 299 298 299 300 299 296 295
324 322 323 326 326 325 326 326 327 325 323 321 321 320 317 313 311 311 311 310 310 309 310 308 302 298 297 296 296 298 298 299 299 299 298 298 298 297 297 296 295 294 293
321 323 324 325 325 326 325 325 326 325 322 321 322 320 315 312 311 311 311 310 310 311 310 309 300 296 295 295 296 297 299 298 298 298 297 296 296 295 294 294 293 293 292
325 321 321 319 323 325 325 325 326 325 322 322 321 317 314 312 311 311 311 310 310 310 310 302 296 294 294 296 297 298 298 298 298 297 296 296 295 295 294 293 292 292 291
327 325 322 321 325 323 324 326 326 325 323 322 321 317 315 312 311 311 311 310 309 309 304 296 294 294 294 297 299 300 299 299 298 297 296 296 295 294 293 292 291 290 290
328 328 327 327 328 325 325 326 327 326 323 323 319 316 314 312 312 312 310 307 306 301 296 294 293 294 296 297 298 298 298 297 296 295 295 294 293 293 292 291 291 290 290
328 329 328 329 328 328 327 327 326 324 324 321 317 315 314 313 312 311 306 304 301 296 296 293 293 294 296 297 296 295 295 296 296 295 294 294 293 293 292 292 291 291 290
Wind_Speed
31 32 29 28 26 25 24 23 22 21 19 18 20 21 23 23 23 23 24 24 25 25 24 23 21 21 20 17 18 18 20 21 18 24 27 23 20 15 13 12 11 12 12
36 35 32 29 27 26 24 23 21 19 18 19 21 23 25 24 24 25 26 27 28 28 27 25 24 22 18 16 17 18 20 21 22 22 23 27 23 20 16 14 14 13 13
36 36 33 31 28 26 25 22 20 18 18 20 22 24 23 25 24 26 27 28 29 28 26 23 21 19 17 20 19 16 18 18 19 21 22 25 24 21 18 16 16 16 14
34 36 34 30 29 29 27 24 21 19 19 21 22 23 23 25 25 27 27 28 29 28 26 23 20 19 19 17 18 15 15 17 17 18 20 22 23 22 20 18 16 15 15
33 34 33 33 32 29 27 24 21 19 20 21 22 22 22 25 26 27 27 27 26 26 25 24 21 19 20 18 16 15 16 16 16 16 19 20 21 22 20 18 17 16 16
33 35 35 33 31 29 26 24 22 20 21 22 21 21 22 25 26 26 26 25 24 23 22 21 19 16 14 13 13 14 15 16 14 15 16 18 19 20 21 19 16 14 14
33 33 34 34 31 29 26 24 22 21 21 22 21 21 23 25 26 25 24 23 22 20 19 17 15 14 12 13 11 13 15 12 11 13 13 15 16 18 19 18 16 13 12
29 31 31 35 32 29 27 24 21 20 21 21 20 21 23 23 23 22 22 20 18 17 14 12 11 10 10 13 10 9 11 12 11 13 13 14 14 15 18 17 16 14 11
21 25 31 34 33 29 27 23 21 20 18 18 20 21 22 22 22 20 19 17 15 13 10 9 8 8 7 7 10 7 9 9 11 13 13 14 15 15 16 15 15 14 12
23 25 30 33 30 24 22 17 15 15 18 19 20 22 21 20 18 17 15 14 13 11 7 6 4 2 2 4 6 9 10 13 13 12 12 15 16 18 17 15 15 15 15
22 24 19 34 26 27 26 15 16 18 20 20 21 21 19 17 17 16 13 12 10 8 6 3 1 2 3 5 9 9 11 13 12 12 13 15 15 17 16 18 16 17 17
28 16 30 35 29 25 19 18 18 21 21 22 22 21 19 19 18 15 13 9 8 6 2 1 3 2 5 7 8 10 13 12 9 10 11 11 14 13 18 17 17 20 17
19 35 33 27 25 22 19 18 20 22 23 22 20 19 17 16 14 13 9 6 4 3 2 4 4 3 4 7 11 11 10 10 10 9 9 8 9 11 14 15 18 17 18
39 32 29 25 23 22 21 22 24 24 22 20 19 16 14 14 11 9 8 6 5 4 5 6 6 6 8 9 8 9 10 11 14 16 13 9 7 5 8 14 16 15 12
31 28 25 24 24 23 24 24 25 23 19 17 14 13 11 9 8 7 8 9 7 6 7 8 9 10 9 9 10 11 12 15 20 19 16 13 11 12 10 12 13 10 8
27 23 23 23 23 25 25 23 22 21 17 16 15 12 10 10 9 9 12 11 10 8 8 7 8 9 11 12 11 13 17 21 18 16 13 12 13 12 8 9 8 5 4
29 26 25 25 25 28 23 23 21 19 18 16 13 12 13 14 13 13 12 11 8 7 6 8 9 11 12 13 15 17 17 14 16 18 17 16 16 14 7 8 8 8 9
26 27 25 27 27 25 24 23 21 19 18 14 12 13 13 15 16 12 10 9 7 5 6 9 11 12 14 17 18 16 15 11 11 14 15 14 12 7 6 7 7 10 9
29 30 30 28 29 26 24 22 20 20 18 11 8 9 14 14 12 12 8 6 5 5 8 12 13 17 18 17 16 14 11 10 14 15 15 13 8 5 7 8 8 10 12
25 27 29 28 27 26 24 24 22 22 19 11 8 8 12 12 11 9 8 5 5 8 12 15 18 19 19 18 15 12 11 14 14 14 14 9 7 5 6 8 11 13 12
28 29 30 29 29 29 30 31 28 26 23 16 9 9 10 10 10 10 6 6 9 13 18 22 24 22 20 19 16 14 14 8 7 10 10 13 13 13 13 15 15 14 14
28 33 32 31 30 31 31 31 28 26 22 16 14 12 12 13 12 8 7 9 12 17 21 25 24 22 21 18 15 14 1 8 18 9 12 14 16 15 17 20 19 19 17
31 32 34 32 32 33 32 29 27 27 24 23 18 17 17 15 12 10 11 12 14 19 24 25 23 20 18 17 14 10 5 4 8 16 10 15 10 16 16 18 20 20 19
36 35 36 36 33 33 33 32 32 33 31 28 23 21 18 15 13 13 14 15 18 22 23 22 20 19 16 14 13 12 10 11 10 9 12 15 19 14 16 16 16 17 17
38 36 36 33 33 35 34 35 33 34 28 26 24 22 18 16 16 17 16 16 19 22 21 19 17 15 12 12 13 14 15 17 17 16 17 12 14 17 18 15 14 17 18
39 39 32 27 28 34 33 33 31 28 28 26 25 23 21 20 19 18 15 15 19 19 25 18 15 14 14 15 18 15 13 13 13 15 17 18 19 20 19 18 16 21 23
Wind_Direction
172 167 168 167 163 157 152 147 144 140 136 132 130 127 124 120 115 109 104 100 97 94 91 90 90 90 89 84 75 70 65 65 69 51 46 42 43 44 43 46 46 45 48
168 168 169 168 165 158 152 147 143 139 135 132 129 128 124 119 114 110 106 103 100 96 95 95 95 92 84 73 77 80 69 64 63 52 45 39 38 35 37 38 40 44 46
168 167 170 170 163 157 150 148 145 141 136 134 132 128 125 118 116 112 110 107 102 98 98 99 97 92 87 80 87 83 71 65 58 52 44 42 39 37 35 33 35 36 38
168 169 170 168 163 161 155 153 148 144 139 135 133 128 125 120 120 117 113 108 105 100 95 94 95 95 86 87 89 86 68 61 56 49 45 37 37 38 36 36 36 36 36
172 168 170 170 165 158 152 150 147 142 136 136 134 130 129 124 122 118 115 112 107 101 97 94 92 90 88 82 75 72 68 65 55 49 40 36 35 37 34 32 37 36 37
173 175 174 170 163 158 151 148 143 137 139 139 136 132 132 127 126 123 120 116 107 102 96 92 95 88 83 83 67 57 68 72 60 42 31 32 32 29 27 24 24 31 34
180 179 172 169 162 154 145 143 138 140 142 140 138 135 134 131 130 127 121 117 110 103 97 93 87 88 79 74 64 58 56 52 42 33 26 23 25 18 14 15 12 13 21
183 179 175 168 159 148 143 140 136 140 145 140 138 138 138 134 131 127 122 116 107 101 98 90 86 82 68 63 60 54 44 29 22 16 14 13 11 6 359 358 0 359 358
180 174 174 157 145 143 140 130 138 135 137 143 140 139 139 137 131 126 122 116 110 107 99 89 85 89 86 46 40 29 18 12 1 357 359 0 356 353 351 349 350 353 350
120 137 137 134 129 128 120 106 116 145 150 146 141 140 136 130 127 122 120 116 115 115 115 116 103 70 44 5 6 356 350 355 353 357 358 349 348 346 347 349 351 353 351
106 91 103 119 121 125 131 139 150 149 149 148 143 139 134 133 132 132 132 125 133 137 147 123 40 349 350 338 338 345 347 348 349 346 342 345 340 337 334 337 342 345 346
120 99 125 128 137 143 155 160 158 153 151 149 141 140 138 134 139 142 142 145 141 158 167 182 271 285 326 333 328 324 322 323 331 331 331 336 336 332 332 330 337 338 348
158 141 149 147 150 160 160 163 160 157 154 151 150 152 153 150 154 157 155 151 165 178 239 278 253 269 305 315 313 316 322 321 326 325 322 319 327 331 326 322 334 339 339
139 144 150 156 166 169 167 168 163 162 163 162 161 162 162 164 171 170 184 189 197 202 248 238 266 290 303 309 315 316 309 308 312 314 318 310 294 320 305 311 319 324 319
159 163 167 169 171 171 165 169 168 168 172 175 171 172 178 181 178 186 191 205 215 237 241 252 270 288 301 306 308 297 297 301 304 292 293 301 305 301 296 304 313 311 298
171 176 176 177 173 175 171 176 178 179 182 178 181 185 195 204 208 213 222 227 241 251 263 272 278 288 300 311 310 310 308 307 303 294 290 298 306 313 302 290 275 277 312
181 178 179 178 180 181 179 183 188 186 187 189 192 202 207 213 225 232 243 238 237 244 265 277 294 304 306 305 308 307 309 309 295 294 297 300 298 297 277 259 259 277 293
186 183 177 177 178 181 188 193 191 189 195 196 203 210 211 225 233 230 217 213 220 252 286 305 300 305 309 317 323 328 332 322 306 307 317 321 325 277 233 227 250 273 279
190 186 183 183 187 190 198 201 198 199 200 210 206 206 215 213 203 203 203 221 245 299 309 301 311 318 323 325 328 334 334 311 308 306 310 313 322 264 209 229 251 278 300
195 195 196 195 198 200 207 205 206 205 209 214 204 210 197 198 198 205 219 239 300 310 316 318 322 322 322 326 329 329 323 313 298 295 302 308 305 291 275 274 273 286 292
198 199 203 202 201 204 207 207 210 217 223 224 224 235 211 208 212 221 243 288 318 325 325 320 317 316 317 321 323 320 325 290 275 295 293 304 308 304 300 301 300 300 299
203 202 207 208 208 208 214 216 222 225 227 235 246 236 210 214 221 236 269 296 313 315 314 313 312 315 316 317 320 325 304 271 270 259 291 300 301 298 309 309 310 310 307
206 207 209 211 215 217 217 220 225 229 229 225 223 214 210 218 230 249 266 281 298 307 312 313 313 314 314 315 316 315 308 261 269 280 256 287 265 286 291 297 302 306 309
211 208 212 215 216 220 221 223 227 232 218 224 226 218 222 227 243 262 274 288 301 308 310 308 310 310 308 310 313 309 300 287 294 287 283 269 281 281 292 293 289 297 303
213 215 214 218 221 219 219 224 229 230 228 234 220 220 226 237 249 254 268 290 305 314 308 304 304 306 307 308 307 300 294 296 295 283 289 288 267 294 299 299 294 298 300
216 217 225 230 234 222 220 229 230 229 230 224 217 221 230 238 247 258 273 297 312 312 303 305 310 310 308 307 309 305 302 300 297 289 288 291 290 293 292 291 296 302 296